DMSP 5D-2 F13 DEB, 40558

Orbit data source: Space-Track

DMSP 5D-2 F13 DEB, 40558 is space debris in SSO originally from a launch on Fri, 24 Mar 1995 UTC launched from the Air Force Western Test Range (AFWTR). Debris objects in space refer to the collection of defunct objects orbiting the Earth. Examples of debris include non-operational satellites, rocket bodies, and fragments generated from explosions, collisions, or faulty payload assembly.

Loading next visibility...
Identifier
40558, 1995-015DR
Orbit
SSO
Country
Flag of USUS
Related business
Manufacturer
Unknown
Mission
Spacecraft
Bus & Motor
Unknown
Mass
Unknown
Launch date (UTC)
1995-03-24 (31 years ago)
Launch vehicle
Unknown
Launch site
Air Force Western Test Range (AFWTR)
Object type
Payload
Rocket body
Debris
Shape & HBR
Unknown shape, 0.1 m
Radar Cross Section
Small (<0.1 m²)

Expand to show TLE details & history
Last TLE update: 4 days ago

TLE from 4 days ago
0 DMSP 5D-2 F13 DEB
1 40558U 95015DR  25335.92308969  .00005074  00000-0  22465-2 0  9993
2 40558  98.9499 321.5042 0043784 272.0543  87.5621 14.23082041548470
Epoch: 2025-12-01T22:09Z
TLE epoch observation values (Epoch: 2025-12-01T22:09:14.949Z)
Latitude
0.00002°
Longitude
-81.82372°
Altitude
816.657 km
Speed
7.445 km/s
True Right ascension
21h 26m 01s
True Declination
0° 00' 00"
Sunlit
Object was in daylight at epoch
Visualization orbit readout
Latitude
Unknown
Longitude
Unknown
Altitude
Unknown
Speed
Unknown
Apparent Right ascension
Unknown
Apparent Declination
Unknown
Sunlit
N/A
Visualization observer readout
Local Sidereal Time
13:33:22
Azimuth
Unknown
Elevation
Unknown
Doppler factor
Unknown
Orbital elements
Apogee altitude
843.596 km
Perigee altitude
780.633 km
Semi-major axis
7,190.251 km
Eccentricity
0.00438
Inclination
98.9499°
RAAN
321.5042°
Arg. of periapsis
272.0543°
True anomaly
88.06348°
Mean anomaly
87.5621°
Eccentric anomaly
87.81278°
Mean motion
3.55981 °/min
Orbital period
101.13 mins
BSTAR
0.0022465

Documentation

Showing up to 5 results
|